Location: Unspecified
(41.5000°N, 0.0000°E)
Time: 22:10:41
(UTC+00:00)

deb Explorer IX - Pass Details

Date: 09 October 2020
Orbit: 537 x 1106 km, 38.8° (Epoch: 26 October)

Event Time Altitude Azimuth Distance (km) Brightness Sun altitude
Rises 17:54:04 0° 277° (W) 3,317 ? -5.7°
Reaches altitude 10° 17:57:02 10° 266° (W) 2,276 ? -6.3°
Maximum altitude 18:01:26 27° 209° (SSW) 1,291 ? -7.1°
Drops below altitude 10° 18:05:19 10° 151° (SSE) 1,987 ? -7.8°
Sets 18:07:45 0° 139° (SE) 2,818 ? -8.3°
